Warning: Javascript must be enabled to use all the features on this page!


Page Loading - Please Wait...

Click to hideNews Bulletins

Peak Streamflow for the Nation

USGS 04073500 FOX RIVER AT BERLIN, WI

Green Lake County, Wisconsin
Hydrologic Unit Code 04030201
Latitude  43°57'14", Longitude  88°57'09" NAD83
Drainage area 1,340  square miles
Gage datum 744.82 feet above NAVD88
Output formats
Table
Graph
Tab-separated file
peakfq (watstore) format
Reselect output format
Water
Year
Date Gage
Height
(feet)
Stream-
flow
(cfs)
1898 1898-03-16   2,7301
1899 1899-04-09   2,8001
1900 1900-04-02   2,8301
1901 1901-03-29   4,8001
1902 1902-05-25   2,4501
1903 1903-03-24   2,6701
1904 1904-03-27   5,4001
1905 1905-06-10   5,9201
1906 1906-03-30   4,4501
1907 1907-03-29   2,5201
1908 1908-03-14   4,0201
1909 1909-05-04   2,9101
1910 1910-03-17   3,0801
1911 1911-02-26   2,6001
1912 1912-03-31   4,1001
1913 1913-03-31   4,3401
1914 1914-06-11   2,7501
1915 1915-03-18   3,0001
1916 1916-03-28   6,4001
1917 1917-03-27   5,6501
1918 1918-03-22   6,0501
1919 1919-03-20   2,6701
1920 1920-03-29   5,1501
1921 1921-05-01   2,4501
1922 1922-03-16   5,9201
1923 1923-04-12   6,0501
1924 1924-04-09   4,0201
1925 1925-03-23   2,5201
1926 1926-04-01   3,4401
1927 1927-03-12   3,1701
1928 1928-03-23   5,9201
1929 1929-03-21   6,6201
1930 1930-03-05   3,0001
1931 1931-04-05   1,1401
1932 1932-01-23   1,9101
1933 1933-04-11   2,6001
1934 1934-04-06   1,9101
1935 1935-03-21   4,3401
1936 1936-03-27   4,3401
1937 1937-03-20   3,2601
1938 1938-09-22   6,1901
1939 1939-03-26   4,9101
1940 1940-06-28   4,7201
1941 1941-04-04   3,5401
1942 1942-03-20 11.80 2,7401
1943 1943-03-31 14.70 5,0801
1944 1944-04-28 11.10 2,2901
1945 1945-03-18 12.80 3,4601
1946 1946-03-17 15.50 6,9001,5
1947 1947-04-12 12.20 3,1601
1948 1948-03-22 13.70 4,5401
1949 1949-04-04 11.60 2,6001
1950 1950-03-28 13.85 4,7801
1951 1951-04-10 13.10 4,0201
1952 1952-04-05 14.10 4,9001
1953 1953-03-20 13.40 4,1001
1954 1954-05-05 10.40 1,8701
1955 1954-10-11 12.20 3,0201
1956 1956-04-04 13.47 4,0001
1957 1957-06-18 10.24 1,6901
1958 1958-04-10 9.312 1,3805
1959 1959-04-12 13.06 3,6701
1960 1960-05-10 13.60 4,1001
1961 1961-04-01 11.192 2,2105
1962 1962-03-30 14.21 5,1601
1963 1963-03-28 12.88 3,4801
1964 1964-05-09 9.63 1,4301
1965 1965-09-30 11.952 2,760
1966 1966-03-08 12.472 3,140
1967 1967-03-28 12.27 2,990
1968 1968-07-04 10.74 1,970
1969 1969-03-27 12.16 2,910
1970 1970-03-22 10.961 1,700
1971 1971-03-24 13.73 4,200
1972 1972-04-01 12.83 3,440
1973 1973-03-15 15.59 6,010
1974 1974-04-17 12.302 3,010
1975 1975-03-29   4,2002
1976 1976-04-01 12.83 3,420
1977 1977-04-10 10.42 1,870
1978 1978-04-11 12.10 2,870
1979 1979-03-31 15.43 5,670
1980 1980-09-22 11.67 2,380
1981 1981-02-28 12.582 3,100
1982 1982-03-23 13.65 3,800
1983 1983-03-19 12.21 2,710
1984 1984-02-22 13.18 3,540
1985 1985-03-05 13.66 3,810
1986 1986-03-26 14.96 4,960
1987 1986-10-05 14.73 4,760
1988 1988-04-06 11.972 2,540
1989 1989-03-27 13.10 3,360
1990 1990-03-22 11.54 2,270
1991 1991-03-27 11.892 2,480
1992 1992-03-14 11.122 2,080
1993 1993-07-12 14.64 4,680
1994 1994-03-12   3,2001,9
1995 1995-06-02 11.80 2,440
1996 1996-06-24 12.892 3,190
1997 1997-04-06 12.68 3,040
1998 1998-04-07 12.60 2,980
1999 1999-07-28 12.67 3,030
2000 2000-06-09 12.04 2,590
2001 2001-04-14 13.04 3,310
2002 2002-06-28 11.99 2,420
2003 2003-05-17 11.28 2,060
2004 2004-06-18 16.23 5,680
2005 2005-02-25 11.68 2,350
2006 2006-05-18 11.17 2,120
2007 2007-04-05 12.07 2,600
2008 2008-06-22 16.08 6,020
2009 2009-03-29 12.83 3,050
2010 2010-07-29 11.84 2,320
2011 2011-05-01 13.022 3,130
2012 2012-05-08 14.32 4,300
2013 2013-04-19 13.75 3,800
2014 2014-04-19 13.22 3,270
2015 2015-04-16 11.152 1,950
2016 2016-04-02 13.25 3,230
2017 2017-05-02 13.20 3,130
2018 2018-09-12 15.20 4,970
2019 2019-03-24 15.20 4,970
2020 2020-04-01 13.54 3,400
2021 2020-11-01 12.63 2,690
?
  Peak Gage-Height Qualification Codes.
?
  Peak Streamflow Qualification Codes.